This demonstration page uses our WeatherBlox Daily Observations layout. Learn more.

Left ArrowRight Arrow

39.08367, -84.50855

Hourly Observations for December 5, 2019

Temp ( °F °C ) Dew Point ( °F °C ) Humidity (%) Winds ( mph kmh ) Pressure ( in mb ) Visibility ( mi km ) Precip ( " mm )
12:53 am 00:53 Clear 40 4.4 29 -1.7 65 65 VRB 6 9 29.94 1014 10 16 N/A
1:53 am 01:53 Clear 38 3.3 29 -1.7 70 70 W 7 11 29.96 1015 10 16 N/A
2:53 am 02:53 Clear 39 3.9 29 -1.7 67 67 NW 6 9 29.99 1016 10 16 N/A
3:53 am 03:53 Clear 38 3.3 29 -1.7 70 70 N N/A 30.03 1017 10 16 N/A
4:53 am 04:53 Clear 28 -2.2 25 -3.9 88 88 N N/A 30.05 1018 10 16 N/A
5:53 am 05:53 Clear 28 -2.2 25 -3.9 88 88 N N/A 30.07 1018 10 16 N/A
6:53 am 06:53 Clear 27 -2.8 26 -3.3 96 96 NE 3 6 30.09 1019 10 16 N/A
7:53 am 07:53 Sunny 25 -3.9 23 -5 92 92 N N/A 30.10 1019 10 16 N/A
8:53 am 08:53 Sunny 31 -0.6 29 -1.7 92 92 N N/A 30.11 1020 9 14 N/A
9:53 am 09:53 Sunny 37 2.8 33 0.6 86 86 N N/A 30.14 1021 10 16 N/A
10:53 am 10:53 Sunny 42 5.6 30 -1.1 62 62 N N/A 30.15 1021 10 16 N/A
11:53 am 11:53 Sunny 45 7.2 28 -2.2 52 52 N N/A 30.14 1021 10 16 N/A
12:53 pm 12:53 Sunny 46 7.8 29 -1.7 51 51 VRB 6 9 30.13 1020 10 16 N/A
1:53 pm 13:53 Sunny 48 8.9 29 -1.7 48 48 SSW 6 9 30.10 1019 10 16 N/A
2:53 pm 14:53 Sunny 49 9.4 28 -2.2 44 44 SW 6 9 30.10 1019 10 16 N/A
3:53 pm 15:53 Sunny 50 10 28 -2.2 43 43 SSW 3 6 30.10 1019 10 16 N/A
4:53 pm 16:53 Sunny 48 8.9 28 -2.2 46 46 SSE 6 9 30.10 1019 10 16 N/A
5:53 pm 17:53 Clear 41 5 29 -1.7 62 62 N N/A 30.11 1020 10 16 N/A
6:53 pm 18:53 Clear 38 3.3 29 -1.7 70 70 N N/A 30.11 1020 10 16 N/A
7:53 pm 19:53 Clear 34 1.1 29 -1.7 82 82 N N/A 30.12 1020 10 16 N/A
8:53 pm 20:53 Clear 33 0.6 30 -1.1 89 89 N N/A 30.11 1020 10 16 N/A
9:53 pm 21:53 Clear 33 0.6 29 -1.7 85 85 N N/A 30.11 1020 10 16 N/A
10:53 pm 22:53 Clear 31 -0.6 28 -2.2 89 89 N N/A 30.10 1019 10 16 N/A
11:53 pm 23:53 Clear 30 -1.1 27 -2.8 88 88 N N/A 30.09 1019 10 16 N/A

Powered by AerisWeather